| time (UTC) | temp C | wind direction | speed KPH | gust KPH | rain 1hr cm | rain 24hr cm | rain mn cm | humidity % | barometer mb |
| 20260506001544 | 11 | 135 | 3.2 | 6.4 | 0.05 | 0.86 | 0.05 | 97 | 1005.0 |
| 20260506001043 | 11 | 132 | 3.2 | 3.2 | 0.05 | 0.86 | 0.05 | 97 | 1005.0 |
| 20260506000541 | 11 | 135 | 3.2 | 3.2 | 0.05 | 0.86 | 0.05 | 97 | 1005.0 |
| 20260506000039 | 11 | 152 | 3.2 | 6.4 | 0.05 | 0.86 | 0.05 | 97 | 1005.1 |
| 20260505235537 | 11 | 158 | 3.2 | 3.2 | 0.05 | 0.86 | 0.05 | 97 | 1005.1 |
| 20260505235036 | 11 | 158 | 3.2 | 3.2 | 0.05 | 0.86 | 0.05 | 97 | 1005.1 |
| 20260505234533 | 11 | 158 | 1.6 | 3.2 | 0.05 | 0.86 | 0.05 | 97 | 1005.2 |
| 20260505234032 | 11 | 158 | 1.6 | 3.2 | 0.05 | 0.86 | 0.05 | 97 | 1005.3 |
| 20260505233531 | 11 | 158 | 3.2 | 6.4 | 0.05 | 0.86 | 0.05 | 97 | 1005.3 |
| 20260505233028 | 11 | 190 | 3.2 | 6.4 | 0.03 | 0.84 | 0.03 | 97 | 1005.3 |
| 20260505232527 | 11 | 149 | 3.2 | 6.4 | 0.00 | 0.81 | 0.00 | 97 | 1005.2 |
| 20260505232025 | 11 | 143 | 3.2 | 6.4 | 0.00 | 0.81 | 0.00 | 97 | 1005.2 |
| 20260505231523 | 11 | 150 | 3.2 | 6.4 | 0.00 | 0.81 | 0.00 | 97 | 1005.3 |
| 20260505231022 | 11 | 170 | 3.2 | 6.4 | 0.00 | 0.81 | 0.00 | 97 | 1005.3 |
| 20260505230520 | 11 | 135 | 1.6 | 3.2 | 0.00 | 0.81 | 0.00 | 97 | 1005.4 |
| 20260505230018 | 11 | 157 | 3.2 | 6.4 | 0.00 | 0.81 | 0.00 | 97 | 1005.3 |
| 20260505225516 | 11 | 180 | 3.2 | 6.4 | 0.00 | 0.81 | 0.00 | 97 | 1005.3 |
| 20260505225115 | 11 | 180 | 1.6 | 6.4 | 0.00 | 0.81 | 0.00 | 97 | 1005.3 |
| 20260505224613 | 11 | 193 | 3.2 | 3.2 | 0.00 | 0.81 | 0.00 | 97 | 1005.3 |
| 20260505224111 | 11 | 203 | 3.2 | 6.4 | 0.00 | 0.81 | 0.00 | 97 | 1005.3 |
| 20260505223610 | 11 | 225 | 3.2 | 6.4 | 0.00 | 0.81 | 0.00 | 97 | 1005.4 |
| 20260505223111 | 11 | 280 | 1.6 | 3.2 | 0.00 | 0.81 | 0.00 | 97 | 1005.4 |
| 20260505222606 | 11 | 293 | 1.6 | 3.2 | 0.00 | 0.81 | 0.00 | 97 | 1005.4 |
| 20260505222104 | 11 | 293 | 1.6 | 3.2 | 0.00 | 0.81 | 0.00 | 97 | 1005.3 |
| 20260505221623 | 11 | 293 | 3.2 | 3.2 | 0.00 | 0.81 | 0.00 | 97 | 1005.4 |
| 20260505221101 | 11 | 293 | 1.6 | 3.2 | 0.00 | 0.81 | 0.00 | 97 | 1005.4 |
| 20260505220619 | 11 | 293 | 1.6 | 3.2 | 0.00 | 0.81 | 0.00 | 97 | 1005.4 |
| 20260505220057 | 11 | 293 | 1.6 | 3.2 | 0.00 | 0.81 | 0.00 | 97 | 1005.4 |
| 20260505215556 | 11 | 293 | 0.0 | 3.2 | 0.00 | 0.81 | 0.81 | 97 | 1005.4 |
| 20260505215054 | 11 | 293 | 3.2 | 3.2 | 0.00 | 0.81 | 0.81 | 97 | 1005.5 |
| 20260505214552 | 11 | 293 | 1.6 | 3.2 | 0.00 | 0.81 | 0.81 | 97 | 1005.5 |
| 20260505214050 | 11 | 293 | 1.6 | 3.2 | 0.00 | 0.81 | 0.81 | 97 | 1005.5 |
| 20260505213552 | 11 | 293 | 1.6 | 3.2 | 0.00 | 0.81 | 0.81 | 97 | 1005.5 |
| 20260505213050 | 11 | 293 | 1.6 | 3.2 | 0.00 | 0.81 | 0.81 | 97 | 1005.4 |
| 20260505212545 | 11 | 0.0 | 3.2 | 0.00 | 0.81 | 0.81 | 96 | 1005.4 | |
| 20260505212043 | 11 | 293 | 1.6 | 3.2 | 0.00 | 0.81 | 0.81 | 96 | 1005.4 |
| 20260505211541 | 11 | 293 | 0.0 | 3.2 | 0.00 | 0.81 | 0.81 | 96 | 1005.4 |
| 20260505211040 | 11 | 0.0 | 0.0 | 0.00 | 0.81 | 0.81 | 96 | 1005.4 | |
| 20260505210558 | 11 | 0.0 | 3.2 | 0.00 | 0.81 | 0.81 | 96 | 1005.5 | |
| 20260505210036 | 11 | 0.0 | 3.2 | 0.00 | 0.81 | 0.81 | 96 | 1005.4 | |
| 20260505205540 | 11 | 293 | 1.6 | 3.2 | 0.00 | 0.81 | 0.81 | 96 | 1005.3 |
| 20260505205033 | 11 | 0.0 | 0.0 | 0.00 | 0.81 | 0.81 | 96 | 1005.3 | |
| 20260505204531 | 11 | 293 | 0.0 | 3.2 | 0.00 | 0.81 | 0.81 | 96 | 1005.3 |
| 20260505204029 | 11 | 293 | 0.0 | 3.2 | 0.00 | 0.81 | 0.81 | 96 | 1005.3 |
| 20260505203527 | 11 | 293 | 1.6 | 3.2 | 0.00 | 0.81 | 0.81 | 95 | 1005.4 |
| 20260505203025 | 11 | 293 | 1.6 | 3.2 | 0.00 | 0.81 | 0.81 | 95 | 1005.2 |
| 20260505202523 | 11 | 293 | 1.6 | 3.2 | 0.00 | 0.81 | 0.81 | 95 | 1005.1 |
| 20260505202041 | 11 | 293 | 1.6 | 3.2 | 0.00 | 0.81 | 0.81 | 95 | 1005.1 |
| 20260505201540 | 11 | 293 | 0.0 | 3.2 | 0.00 | 0.81 | 0.81 | 95 | 1005.2 |
| 20260505201018 | 11 | 293 | 1.6 | 3.2 | 0.00 | 0.81 | 0.81 | 95 | 1005.1 |
| 20260505200536 | 12 | 296 | 1.6 | 3.2 | 0.00 | 0.81 | 0.81 | 94 | 1005.1 |
| 20260505200114 | 12 | 315 | 0.0 | 3.2 | 0.00 | 0.81 | 0.81 | 94 | 1005.1 |
| 20260505195612 | 12 | 315 | 3.2 | 6.4 | 0.00 | 0.81 | 0.81 | 94 | 1005.0 |
| 20260505195111 | 12 | 315 | 1.6 | 3.2 | 0.00 | 0.81 | 0.81 | 94 | 1005.1 |
| 20260505194611 | 12 | 315 | 1.6 | 6.4 | 0.00 | 0.81 | 0.81 | 94 | 1005.1 |
| 20260505194127 | 12 | 313 | 1.6 | 3.2 | 0.00 | 0.81 | 0.81 | 94 | 1005.0 |
| 20260505193606 | 12 | 306 | 4.8 | 9.7 | 0.00 | 0.81 | 0.81 | 93 | 1005.0 |
| 20260505193104 | 12 | 315 | 3.2 | 6.4 | 0.00 | 0.81 | 0.81 | 94 | 1005.0 |
| 20260505192602 | 12 | 318 | 4.8 | 9.7 | 0.00 | 0.81 | 0.81 | 93 | 1005.0 |
| 20260505192100 | 12 | 323 | 4.8 | 6.4 | 0.00 | 0.81 | 0.81 | 93 | 1004.8 |
| 20260505191558 | 12 | 315 | 3.2 | 9.7 | 0.00 | 0.81 | 0.81 | 93 | 1004.9 |
| 20260505191056 | 12 | 301 | 4.8 | 11.3 | 0.00 | 0.81 | 0.81 | 93 | 1005.1 |
| 20260505190555 | 12 | 295 | 1.6 | 6.4 | 0.00 | 0.81 | 0.81 | 94 | 1005.2 |
| 20260505190053 | 12 | 289 | 3.2 | 6.4 | 0.00 | 0.81 | 0.81 | 94 | 1005.2 |
| 20260505185551 | 12 | 315 | 3.2 | 6.4 | 0.00 | 0.81 | 0.81 | 93 | 1005.1 |
| 20260505185050 | 12 | 308 | 1.6 | 6.4 | 0.00 | 0.81 | 0.81 | 94 | 1005.0 |
| 20260505184550 | 12 | 270 | 1.6 | 3.2 | 0.00 | 0.81 | 0.81 | 94 | 1005.0 |
| 20260505184045 | 12 | 263 | 1.6 | 3.2 | 0.00 | 0.81 | 0.81 | 94 | 1005.0 |
| 20260505183543 | 12 | 252 | 1.6 | 6.4 | 0.00 | 0.81 | 0.81 | 94 | 1005.0 |
| 20260505183057 | 12 | 278 | 3.2 | 6.4 | 0.00 | 0.81 | 0.81 | 93 | 1005.0 |
| 20260505182540 | 12 | 315 | 1.6 | 6.4 | 0.00 | 0.81 | 0.81 | 93 | 1004.9 |
| 20260505182038 | 12 | 310 | 1.6 | 6.4 | 0.00 | 0.81 | 0.81 | 93 | 1004.9 |
| 20260505181536 | 12 | 319 | 3.2 | 6.4 | 0.00 | 0.81 | 0.81 | 92 | 1004.9 |
| 20260505181034 | 12 | 315 | 3.2 | 9.7 | 0.00 | 0.81 | 0.81 | 93 | 1004.8 |
| 20260505180533 | 12 | 307 | 3.2 | 6.4 | 0.00 | 0.81 | 0.81 | 93 | 1004.7 |
| 20260505180051 | 12 | 315 | 0.0 | 3.2 | 0.00 | 0.81 | 0.81 | 93 | 1004.7 |
| 20260505175529 | 12 | 274 | 3.2 | 6.4 | 0.00 | 0.81 | 0.81 | 93 | 1004.7 |
| 20260505175027 | 12 | 288 | 3.2 | 6.4 | 0.00 | 0.81 | 0.81 | 93 | 1004.6 |
| 20260505174526 | 12 | 292 | 1.6 | 6.4 | 0.00 | 0.81 | 0.81 | 94 | 1004.5 |
| 20260505174024 | 12 | 299 | 3.2 | 9.7 | 0.05 | 0.81 | 0.81 | 93 | 1004.4 |
| 20260505173522 | 12 | 311 | 4.8 | 6.4 | 0.10 | 0.81 | 0.81 | 93 | 1004.4 |
| 20260505173021 | 12 | 307 | 3.2 | 6.4 | 0.13 | 0.81 | 0.81 | 93 | 1004.4 |
| 20260505172519 | 12 | 308 | 3.2 | 6.4 | 0.15 | 0.81 | 0.81 | 93 | 1004.3 |
| 20260505172017 | 12 | 306 | 3.2 | 9.7 | 0.18 | 0.81 | 0.81 | 92 | 1004.3 |
| 20260505171515 | 12 | 277 | 3.2 | 11.3 | 0.23 | 0.81 | 0.81 | 92 | 1004.3 |
| 20260505171115 | 12 | 301 | 4.8 | 9.7 | 0.28 | 0.81 | 0.81 | 92 | 1004.2 |
| 20260505170612 | 12 | 254 | 3.2 | 6.4 | 0.33 | 0.81 | 0.81 | 92 | 1004.4 |
| 20260505170110 | 12 | 296 | 3.2 | 6.4 | 0.38 | 0.81 | 0.81 | 93 | 1004.3 |
| 20260505165708 | 12 | 315 | 3.2 | 9.7 | 0.46 | 0.81 | 0.81 | 92 | 1004.4 |
| 20260505165106 | 12 | 311 | 4.8 | 9.7 | 0.48 | 0.81 | 0.81 | 92 | 1004.4 |
| 20260505164605 | 12 | 311 | 4.8 | 9.7 | 0.51 | 0.81 | 0.81 | 91 | 1004.6 |
| 20260505164103 | 12 | 315 | 3.2 | 6.4 | 0.48 | 0.76 | 0.76 | 91 | 1004.7 |
| 20260505163601 | 12 | 315 | 3.2 | 6.4 | 0.46 | 0.71 | 0.71 | 90 | 1004.9 |
| 20260505163059 | 12 | 309 | 4.8 | 9.7 | 0.43 | 0.69 | 0.69 | 91 | 1005.0 |
| 20260505162558 | 12 | 236 | 4.8 | 11.3 | 0.46 | 0.66 | 0.66 | 91 | 1005.3 |
| 20260505162056 | 12 | 225 | 4.8 | 11.3 | 0.48 | 0.64 | 0.64 | 91 | 1005.5 |
| 20260505161554 | 12 | 246 | 8.0 | 17.7 | 0.48 | 0.56 | 0.56 | 90 | 1005.4 |
| 20260505161052 | 12 | 221 | 4.8 | 12.9 | 0.53 | 0.53 | 0.53 | 91 | 1005.4 |
| 20260505160551 | 12 | 205 | 8.0 | 17.7 | 0.48 | 0.48 | 0.48 | 90 | 1005.4 |
| 20260505153038 | 14 | 270 | 4.8 | 12.9 | 0.28 | 0.28 | 0.28 | 81 | 1004.2 |
| 20260505152536 | 15 | 257 | 4.8 | 9.7 | 0.20 | 0.20 | 0.20 | 77 | 1004.2 |
| 20260505152055 | 16 | 224 | 11.3 | 20.9 | 0.15 | 0.15 | 0.15 | 70 | 1004.2 |
| 20260505151533 | 17 | 229 | 8.0 | 17.7 | 0.10 | 0.10 | 0.10 | 64 | 1004.0 |
| 20260505151031 | 18 | 262 | 3.2 | 9.7 | 0.00 | 0.00 | 0.00 | 60 | 1003.7 |
| 20260505150533 | 18 | 315 | 3.2 | 6.4 | 0.00 | 0.00 | 0.00 | 58 | 1003.5 |
| 20260505140607 | 20 | 338 | 1.6 | 3.2 | 0.00 | 0.00 | 0.00 | 53 | 1003.8 |
| 20260505140105 | 20 | 349 | 1.6 | 6.4 | 0.00 | 0.00 | 0.00 | 52 | 1003.9 |
| 20260505125041 | 21 | 358 | 4.8 | 12.9 | 0.00 | 0.00 | 0.00 | 52 | 1004.6 |
| 20260505124539 | 21 | 38 | 6.4 | 14.5 | 0.00 | 0.00 | 0.00 | 51 | 1004.7 |
| 20260505124037 | 21 | 340 | 4.8 | 11.3 | 0.00 | 0.00 | 0.00 | 52 | 1004.7 |
| 20260505123535 | 20 | 313 | 6.4 | 12.9 | 0.00 | 0.00 | 0.00 | 54 | 1004.8 |
| 20260505123033 | 20 | 308 | 8.0 | 14.5 | 0.00 | 0.00 | 0.00 | 53 | 1004.9 |
| 20260505122531 | 21 | 306 | 9.7 | 17.7 | 0.00 | 0.00 | 0.00 | 53 | 1004.9 |
| 20260505122030 | 20 | 299 | 6.4 | 12.9 | 0.00 | 0.00 | 0.00 | 52 | 1004.9 |
| 20260505121528 | 21 | 343 | 9.7 | 17.7 | 0.00 | 0.00 | 0.00 | 54 | 1004.9 |
| 20260505121025 | 21 | 335 | 4.8 | 14.5 | 0.00 | 0.00 | 0.00 | 52 | 1004.9 |
| 20260505120527 | 22 | 315 | 6.4 | 14.5 | 0.00 | 0.00 | 0.00 | 50 | 1005.0 |
| 20260505120022 | 21 | 328 | 4.8 | 14.5 | 0.00 | 0.00 | 0.00 | 50 | 1005.0 |
| 20260505115520 | 21 | 305 | 8.0 | 14.5 | 0.00 | 0.00 | 0.00 | 50 | 1005.1 |
| 20260505115018 | 21 | 330 | 4.8 | 9.7 | 0.00 | 0.00 | 0.00 | 50 | 1005.1 |
| 20260505114517 | 20 | 323 | 3.2 | 9.7 | 0.00 | 0.00 | 0.00 | 49 | 1005.2 |
| 20260505114015 | 20 | 349 | 3.2 | 6.4 | 0.00 | 0.00 | 0.00 | 49 | 1005.3 |
| 20260505113613 | 20 | 16 | 3.2 | 6.4 | 0.00 | 0.00 | 0.00 | 50 | 1005.3 |
| 20260505113112 | 20 | 29 | 3.2 | 9.7 | 0.00 | 0.00 | 0.00 | 50 | 1005.3 |
| 20260505112610 | 20 | 23 | 3.2 | 6.4 | 0.00 | 0.00 | 0.00 | 48 | 1005.4 |
| 20260505112108 | 20 | 4 | 3.2 | 6.4 | 0.00 | 0.00 | 0.00 | 48 | 1005.4 |
| 20260505111607 | 20 | 38 | 3.2 | 6.4 | 0.00 | 0.00 | 0.00 | 49 | 1005.4 |
| 20260505111105 | 20 | 35 | 6.4 | 12.9 | 0.00 | 0.00 | 0.00 | 49 | 1005.5 |
| 20260505110623 | 20 | 347 | 4.8 | 9.7 | 0.00 | 0.00 | 0.00 | 49 | 1005.6 |
| 20260505102047 | 20 | 6 | 4.8 | 9.7 | 0.00 | 0.00 | 0.00 | 50 | 1005.8 |
| 20260505101545 | 20 | 338 | 1.6 | 9.7 | 0.00 | 0.00 | 0.00 | 50 | 1005.9 |
| 20260505101043 | 20 | 315 | 1.6 | 6.4 | 0.00 | 0.00 | 0.00 | 51 | 1005.9 |
| 20260505100541 | 20 | 311 | 4.8 | 11.3 | 0.00 | 0.00 | 0.00 | 49 | 1005.9 |
| 20260505100040 | 21 | 326 | 4.8 | 12.9 | 0.00 | 0.00 | 0.00 | 49 | 1005.9 |
| 20260505095538 | 20 | 335 | 4.8 | 12.9 | 0.00 | 0.00 | 0.00 | 51 | 1006.0 |
| 20260505095036 | 20 | 37 | 4.8 | 11.3 | 0.00 | 0.00 | 0.00 | 53 | 1006.0 |
| 20260505094534 | 20 | 338 | 3.2 | 12.9 | 0.00 | 0.00 | 0.00 | 53 | 1006.1 |
| 20260505094052 | 20 | 19 | 4.8 | 17.7 | 0.00 | 0.00 | 0.00 | 53 | 1006.2 |
| 20260505093530 | 20 | 336 | 4.8 | 11.3 | 0.00 | 0.00 | 0.00 | 53 | 1006.2 |
| 20260505093051 | 20 | 332 | 3.2 | 11.3 | 0.00 | 0.00 | 0.00 | 53 | 1006.3 |
| 20260505092527 | 20 | 352 | 6.4 | 11.3 | 0.00 | 0.00 | 0.00 | 56 | 1006.4 |
| 20260505092025 | 20 | 315 | 3.2 | 9.7 | 0.00 | 0.00 | 0.00 | 55 | 1006.5 |
| 20260505091524 | 20 | 15 | 1.6 | 6.4 | 0.00 | 0.00 | 0.00 | 56 | 1006.5 |
| 20260505091022 | 18 | 321 | 1.6 | 6.4 | 0.00 | 0.00 | 0.00 | 58 | 1006.5 |
| 20260505090520 | 19 | 13 | 1.6 | 6.4 | 0.00 | 0.00 | 0.00 | 56 | 1006.6 |
| 20260505090018 | 20 | 63 | 3.2 | 6.4 | 0.00 | 0.00 | 0.00 | 54 | 1006.6 |
| 20260505085537 | 19 | 20 | 1.6 | 6.4 | 0.00 | 0.00 | 0.00 | 55 | 1006.6 |
| 20260505085116 | 20 | 25 | 4.8 | 9.7 | 0.00 | 0.00 | 0.00 | 57 | 1006.6 |
| 20260505084613 | 19 | 113 | 1.6 | 6.4 | 0.00 | 0.00 | 0.00 | 60 | 1006.6 |
| 20260505084112 | 19 | 112 | 3.2 | 6.4 | 0.00 | 0.00 | 0.00 | 60 | 1006.6 |
| 20260505083610 | 20 | 106 | 3.2 | 6.4 | 0.00 | 0.00 | 0.00 | 59 | 1006.7 |
| 20260505083108 | 18 | 23 | 1.6 | 6.4 | 0.00 | 0.00 | 0.00 | 61 | 1006.8 |
| 20260505082606 | 19 | 40 | 3.2 | 6.4 | 0.00 | 0.00 | 0.00 | 61 | 1006.9 |
| 20260505082104 | 18 | 23 | 0.0 | 3.2 | 0.00 | 0.00 | 0.00 | 60 | 1006.9 |
| 20260505081606 | 18 | 23 | 3.2 | 6.4 | 0.00 | 0.00 | 0.00 | 61 | 1006.9 |
| 20260505081101 | 18 | 45 | 3.2 | 6.4 | 0.00 | 0.00 | 0.00 | 61 | 1006.9 |
| 20260505080600 | 18 | 30 | 3.2 | 6.4 | 0.00 | 0.00 | 0.00 | 60 | 1007.0 |
| 20260505080058 | 19 | 17 | 0.0 | 6.4 | 0.00 | 0.00 | 0.00 | 60 | 1007.0 |
| 20260505075555 | 19 | 0 | 0.0 | 3.2 | 0.00 | 0.00 | 0.00 | 58 | 1007.0 |
| 20260505075054 | 18 | 324 | 1.6 | 3.2 | 0.00 | 0.00 | 0.00 | 60 | 1007.1 |
| 20260505074552 | 18 | 315 | 0.0 | 3.2 | 0.00 | 0.00 | 0.00 | 62 | 1007.2 |
| 20260505074050 | 18 | 324 | 1.6 | 3.2 | 0.00 | 0.00 | 0.00 | 64 | 1007.2 |
| 20260505073609 | 17 | 338 | 1.6 | 3.2 | 0.00 | 0.00 | 0.00 | 66 | 1007.3 |
| 20260505073047 | 17 | 338 | 1.6 | 3.2 | 0.00 | 0.00 | 0.00 | 68 | 1007.3 |
| 20260505072545 | 16 | 338 | 1.6 | 3.2 | 0.00 | 0.00 | 0.00 | 69 | 1007.4 |
| 20260505072043 | 16 | 338 | 1.6 | 6.4 | 0.00 | 0.00 | 0.00 | 71 | 1007.4 |
| 20260505071541 | 16 | 338 | 1.6 | 3.2 | 0.00 | 0.00 | 0.00 | 73 | 1007.5 |
| 20260505071040 | 15 | 318 | 1.6 | 3.2 | 0.00 | 0.00 | 0.00 | 74 | 1007.5 |
| 20260505070538 | 15 | 338 | 1.6 | 3.2 | 0.00 | 0.00 | 0.00 | 73 | 1007.5 |
| 20260505070036 | 15 | 326 | 3.2 | 6.4 | 0.00 | 0.00 | 0.00 | 72 | 1007.4 |
| 20260505065534 | 15 | 315 | 1.6 | 6.4 | 0.00 | 0.00 | 0.00 | 72 | 1007.5 |
| 20260505065033 | 15 | 329 | 1.6 | 6.4 | 0.00 | 0.00 | 0.00 | 73 | 1007.5 |
| 20260505064531 | 15 | 338 | 0.0 | 3.2 | 0.00 | 0.00 | 0.00 | 73 | 1007.5 |
| 20260505064029 | 15 | 0.0 | 0.0 | 0.00 | 0.00 | 0.00 | 71 | 1007.6 | |
| 20260505063527 | 15 | 0.0 | 3.2 | 0.00 | 0.00 | 0.00 | 74 | 1007.5 | |
| 20260505063025 | 15 | 338 | 0.0 | 3.2 | 0.00 | 0.00 | 0.00 | 75 | 1007.5 |
| 20260505062523 | 15 | 338 | 0.0 | 3.2 | 0.00 | 0.00 | 0.00 | 75 | 1007.6 |
| 20260505062022 | 15 | 0.0 | 3.2 | 0.00 | 0.00 | 0.00 | 76 | 1007.5 | |
| 20260505061520 | 14 | 338 | 0.0 | 3.2 | 0.00 | 0.00 | 0.00 | 77 | 1007.5 |
| 20260505061018 | 14 | 338 | 0.0 | 3.2 | 0.00 | 0.00 | 0.00 | 77 | 1007.4 |
| 20260505060516 | 14 | 0.0 | 0.0 | 0.00 | 0.00 | 0.00 | 78 | 1007.5 | |
| 20260505060135 | 14 | 0.0 | 3.2 | 0.00 | 0.00 | 0.00 | 77 | 1007.5 | |
| 20260505055613 | 13 | 338 | 0.0 | 3.2 | 0.00 | 0.00 | 0.00 | 78 | 1007.5 |
| 20260505055112 | 13 | 338 | 1.6 | 3.2 | 0.00 | 0.00 | 0.00 | 79 | 1007.5 |
| 20260505054613 | 13 | 356 | 3.2 | 3.2 | 0.00 | 0.00 | 0.00 | 79 | 1007.5 |
| 20260505054128 | 13 | 23 | 1.6 | 3.2 | 0.00 | 0.00 | 0.00 | 78 | 1007.4 |
| 20260505053606 | 13 | 23 | 0.0 | 3.2 | 0.00 | 0.00 | 0.00 | 79 | 1007.4 |
| 20260505053104 | 13 | 0.0 | 3.2 | 0.00 | 0.00 | 0.00 | 79 | 1007.4 | |
| 20260505052603 | 13 | 0.0 | 3.2 | 0.00 | 0.00 | 0.00 | 79 | 1007.4 | |
| 20260505052101 | 13 | 0.0 | 0.0 | 0.00 | 0.00 | 0.00 | 80 | 1007.4 | |
| 20260505051600 | 13 | 0.0 | 3.2 | 0.00 | 0.00 | 0.00 | 80 | 1007.3 | |
| 20260505051058 | 13 | 23 | 0.0 | 3.2 | 0.00 | 0.00 | 0.00 | 79 | 1007.2 |
| 20260505050556 | 13 | 0.0 | 3.2 | 0.00 | 0.00 | 0.00 | 79 | 1007.3 | |
| 20260505041538 | 12 | 23 | 1.6 | 6.4 | 0.00 | 0.00 | 0.00 | 82 | 1007.2 |
| 20260505041037 | 12 | 341 | 3.2 | 6.4 | 0.00 | 0.00 | 0.00 | 82 | 1007.2 |
| 20260505040535 | 13 | 315 | 3.2 | 6.4 | 0.00 | 0.00 | 0.00 | 82 | 1007.2 |
| 20260505040033 | 12 | 338 | 1.6 | 6.4 | 0.00 | 0.00 | 0.00 | 82 | 1007.3 |
| 20260505035532 | 12 | 356 | 1.6 | 3.2 | 0.00 | 0.00 | 0.00 | 82 | 1007.3 |
| 20260505035030 | 13 | 0 | 1.6 | 3.2 | 0.00 | 0.00 | 0.00 | 80 | 1007.3 |
| 20260505034528 | 13 | 0 | 1.6 | 3.2 | 0.00 | 0.00 | 0.00 | 80 | 1007.4 |
| 20260505034026 | 13 | 0 | 0.0 | 3.2 | 0.00 | 0.00 | 0.00 | 79 | 1007.4 |
| 20260505033525 | 13 | 0 | 0.0 | 3.2 | 0.00 | 0.00 | 0.00 | 78 | 1007.5 |
| 20260505033023 | 13 | 45 | 1.6 | 3.2 | 0.00 | 0.00 | 0.00 | 78 | 1007.5 |
| 20260505032521 | 13 | 45 | 0.0 | 3.2 | 0.00 | 0.00 | 0.00 | 77 | 1007.7 |
| 20260505032019 | 13 | 45 | 0.0 | 3.2 | 0.00 | 0.00 | 0.00 | 77 | 1007.7 |
| 20260505031518 | 13 | 45 | 0.0 | 3.2 | 0.00 | 0.00 | 0.00 | 76 | 1007.8 |
| 20260505031016 | 13 | 0.0 | 3.2 | 0.00 | 0.00 | 0.00 | 76 | 1007.9 | |
| 20260505030615 | 13 | 50 | 0.0 | 6.4 | 0.00 | 0.00 | 0.00 | 78 | 1007.9 |
| 20260505030112 | 13 | 0.0 | 3.2 | 0.00 | 0.00 | 0.00 | 78 | 1008.0 | |
| 20260505025611 | 14 | 30 | 3.2 | 6.4 | 0.00 | 0.00 | 0.00 | 74 | 1008.0 |
| 20260505025109 | 14 | 8 | 3.2 | 6.4 | 0.00 | 0.00 | 0.00 | 75 | 1008.1 |
| 20260505024607 | 13 | 5 | 3.2 | 6.4 | 0.00 | 0.00 | 0.00 | 76 | 1008.1 |
| 20260505024106 | 13 | 3 | 4.8 | 9.7 | 0.00 | 0.00 | 0.00 | 76 | 1008.1 |
| 20260505023604 | 13 | 341 | 3.2 | 6.4 | 0.00 | 0.00 | 0.00 | 78 | 1008.2 |
| 20260505023102 | 13 | 338 | 3.2 | 6.4 | 0.00 | 0.00 | 0.00 | 78 | 1008.4 |
| 20260505022601 | 13 | 351 | 3.2 | 6.4 | 0.00 | 0.00 | 0.00 | 77 | 1008.4 |
| 20260505022059 | 13 | 346 | 3.2 | 6.4 | 0.00 | 0.00 | 0.00 | 77 | 1008.4 |
| 20260505021557 | 13 | 353 | 3.2 | 9.7 | 0.00 | 0.00 | 0.00 | 77 | 1008.3 |
| 20260505021055 | 13 | 343 | 4.8 | 9.7 | 0.00 | 0.00 | 0.00 | 75 | 1008.3 |
| 20260505020554 | 13 | 23 | 4.8 | 11.3 | 0.00 | 0.00 | 0.00 | 77 | 1008.4 |
| 20260505020052 | 13 | 352 | 4.8 | 9.7 | 0.00 | 0.00 | 0.00 | 76 | 1008.4 |
| 20260505015630 | 13 | 359 | 4.8 | 9.7 | 0.00 | 0.00 | 0.00 | 78 | 1008.4 |
| 20260505015048 | 13 | 15 | 3.2 | 9.7 | 0.00 | 0.00 | 0.00 | 79 | 1008.5 |
| 20260505014550 | 13 | 0 | 6.4 | 9.7 | 0.00 | 0.00 | 0.00 | 78 | 1008.5 |
| 20260505014045 | 13 | 342 | 4.8 | 12.9 | 0.00 | 0.00 | 0.00 | 80 | 1008.5 |
| 20260505013543 | 13 | 338 | 4.8 | 9.7 | 0.00 | 0.00 | 0.00 | 81 | 1008.5 |
| 20260505013041 | 13 | 332 | 6.4 | 14.5 | 0.00 | 0.00 | 0.00 | 81 | 1008.5 |
| 20260505012600 | 13 | 325 | 6.4 | 11.3 | 0.00 | 0.00 | 0.00 | 79 | 1008.6 |
| 20260505012038 | 13 | 4 | 6.4 | 11.3 | 0.00 | 0.00 | 0.00 | 77 | 1008.4 |
| 20260505011536 | 13 | 40 | 11.3 | 20.9 | 0.00 | 0.00 | 0.00 | 75 | 1008.4 |
| 20260505011034 | 13 | 29 | 12.9 | 22.5 | 0.00 | 0.00 | 0.00 | 78 | 1008.6 |
| 20260505010533 | 13 | 13 | 6.4 | 11.3 | 0.00 | 0.00 | 0.00 | 81 | 1008.9 |
| 20260505010031 | 13 | 338 | 4.8 | 11.3 | 0.00 | 0.00 | 0.00 | 82 | 1009.1 |
| 20260505005529 | 13 | 0 | 3.2 | 9.7 | 0.00 | 0.00 | 0.00 | 80 | 1009.2 |
| 20260505005027 | 13 | 345 | 3.2 | 9.7 | 0.00 | 0.00 | 0.00 | 79 | 1009.2 |
| 20260505004525 | 13 | 341 | 4.8 | 9.7 | 0.00 | 0.00 | 0.00 | 78 | 1009.3 |
| 20260505004024 | 13 | 315 | 4.8 | 6.4 | 0.00 | 0.00 | 0.00 | 78 | 1009.2 |
| 20260505003522 | 13 | 329 | 4.8 | 9.7 | 0.00 | 0.00 | 0.00 | 79 | 1009.4 |
| 20260505003020 | 13 | 322 | 3.2 | 6.4 | 0.00 | 0.00 | 0.00 | 79 | 1009.5 |
| 20260505002519 | 13 | 315 | 4.8 | 6.4 | 0.00 | 0.00 | 0.00 | 78 | 1009.6 |